When you browse on this site, cookies collect data to enhance your experience and personalize the content and advertising you see.
Visit our Privacy Policy to learn more. By continuing to use the site, you agree to this use of cookies and data.
  • en Suisse
  • Liste des pays
  • À 7 jours
  • Température de l'eau
  • Carte météo
  • Widgets météo
  • user-avatar
    Se connecter

    Météo par heure à Anvers

    Ce jour, 28 Mars, Samedi

    Heure Température Précipitation Vent Pression Humidité
    00:00 +7°C° 0 mm 5 m/s 764 mmHg 72%
    01:00 +7°C° 0 mm 5 m/s 764 mmHg 76%
    02:00 +6°C° 0 mm 4 m/s 764 mmHg 79%
    03:00 +6°C° 0 mm 4 m/s 764 mmHg 82%
    04:00 +5°C° 0 mm 4 m/s 765 mmHg 84%
    05:00 +5°C° 0 mm 5 m/s 765 mmHg 85%
    06:00 +5°C° 0 mm 5 m/s 765 mmHg 85%
    07:00 +6°C° 0 mm 5 m/s 765 mmHg 77%
    08:00 +7°C° 0 mm 6 m/s 766 mmHg 70%
    09:00 +9°C° 0 mm 6 m/s 766 mmHg 62%
    10:00 +10°C° 0 mm 6 m/s 766 mmHg 56%
    11:00 +11°C° 0 mm 6 m/s 766 mmHg 51%
    12:00 +13°C° 0 mm 6 m/s 767 mmHg 44%
    13:00 +13°C° 0 mm 6 m/s 766 mmHg 46%
    14:00 +12°C° 0 mm 7 m/s 766 mmHg 49%
    15:00 +12°C° 0 mm 7 m/s 766 mmHg 51%
    16:00 +10°C° 0 mm 7 m/s 767 mmHg 56%
    17:00 +9°C° 0 mm 7 m/s 767 mmHg 61%
    18:00 +6°C° 0 mm 7 m/s 768 mmHg 66%
    19:00 +5°C° 0 mm 6 m/s 768 mmHg 67%
    20:00 +4°C° 0 mm 6 m/s 769 mmHg 68%
    21:00 +4°C° 0 mm 6 m/s 769 mmHg 69%
    22:00 +3°C° 0 mm 5 m/s 770 mmHg 67%
    23:00 +3°C° 0 mm 5 m/s 770 mmHg 65%

    Demain, 29 Mars, Dimanche

    Heure Température Précipitation Vent Pression Humidité
    00:00 +2°C° 0 mm 5 m/s 770 mmHg 63%
    01:00 +2°C° 0 mm 5 m/s 770 mmHg 63%
    02:00 +2°C° 0 mm 5 m/s 770 mmHg 64%
    03:00 +2°C° 0 mm 5 m/s 770 mmHg 64%
    04:00 +2°C° 0 mm 5 m/s 770 mmHg 65%
    05:00 +2°C° 0 mm 6 m/s 770 mmHg 65%
    06:00 +2°C° 0 mm 6 m/s 770 mmHg 66%
    07:00 +3°C° 0 mm 7 m/s 770 mmHg 60%
    08:00 +2°C° 0 mm 9 m/s 771 mmHg 53%
    09:00 +3°C° 0 mm 10 m/s 771 mmHg 47%
    10:00 +5°C° 0 mm 10 m/s 771 mmHg 47%
    11:00 +5°C° 0 mm 10 m/s 772 mmHg 47%
    12:00 +5°C° 0 mm 10 m/s 772 mmHg 48%
    13:00 +5°C° 0 mm 10 m/s 772 mmHg 48%
    14:00 +5°C° 0 mm 10 m/s 772 mmHg 49%
    15:00 +3°C° 0 mm 10 m/s 772 mmHg 50%
    16:00 +3°C° 0 mm 9 m/s 772 mmHg 49%
    17:00 +2°C° 0 mm 9 m/s 773 mmHg 49%
    18:00 +1°C° 0 mm 8 m/s 773 mmHg 49%
    19:00 0°C° 0 mm 7 m/s 774 mmHg 49%
    20:00 -1°C° 0 mm 7 m/s 774 mmHg 50%
    21:00 -2°C° 0 mm 6 m/s 775 mmHg 50%
    22:00 -1°C° 0 mm 5 m/s 775 mmHg 52%
    23:00 -2°C° 0 mm 5 m/s 775 mmHg 54%

    Après-demain, 30 Mars, Lundi

    Heure Température Précipitation Vent Pression Humidité
    00:00 -2°C° 0 mm 4 m/s 775 mmHg 56%
    01:00 -2°C° 0 mm 4 m/s 774 mmHg 59%
    02:00 -2°C° 0 mm 3 m/s 774 mmHg 62%
    03:00 -2°C° 0 mm 3 m/s 774 mmHg 65%
    04:00 -2°C° 0 mm 2 m/s 773 mmHg 65%
    05:00 -2°C° 0 mm 2 m/s 773 mmHg 66%
    06:00 -2°C° 0 mm 2 m/s 773 mmHg 66%
    07:00 +1°C° 0 mm 2 m/s 773 mmHg 62%
    08:00 +3°C° 0 mm 2 m/s 773 mmHg 58%
    09:00 +5°C° 0 mm 2 m/s 772 mmHg 54%
    10:00 +5°C° 0 mm 3 m/s 772 mmHg 56%
    11:00 +5°C° 0 mm 4 m/s 771 mmHg 58%
    12:00 +6°C° 0 mm 4 m/s 771 mmHg 59%
    13:00 +6°C° 0.1 mm 5 m/s 770 mmHg 61%
    14:00 +7°C° 0.1 mm 5 m/s 770 mmHg 62%
    15:00 +7°C° 0.1 mm 6 m/s 769 mmHg 63%
    16:00 +6°C° 0.1 mm 5 m/s 769 mmHg 63%
    17:00 +5°C° 0.1 mm 5 m/s 769 mmHg 63%
    18:00 +3°C° 0.1 mm 5 m/s 769 mmHg 63%
    19:00 +3°C° 0 mm 5 m/s 769 mmHg 64%
    20:00 +2°C° 0 mm 5 m/s 770 mmHg 66%
    21:00 +1°C° 0 mm 5 m/s 770 mmHg 67%
    22:00 +1°C° 0 mm 5 m/s 770 mmHg 71%
    23:00 0°C° 0 mm 5 m/s 770 mmHg 75%

    31 Mars, Mardi

    Heure Température Précipitation Vent Pression Humidité
    00:00 0°C° 0 mm 5 m/s 771 mmHg 79%
    01:00 -1°C° 0 mm 5 m/s 771 mmHg 80%
    02:00 -1°C° 0 mm 5 m/s 771 mmHg 80%
    03:00 -2°C° 0 mm 5 m/s 771 mmHg 81%
    04:00 -2°C° 0 mm 4 m/s 771 mmHg 75%
    05:00 -2°C° 0 mm 4 m/s 771 mmHg 69%
    06:00 -3°C° 0 mm 4 m/s 772 mmHg 62%
    07:00 -1°C° 0 mm 4 m/s 772 mmHg 56%
    08:00 0°C° 0 mm 5 m/s 772 mmHg 50%
    09:00 +2°C° 0 mm 5 m/s 772 mmHg 44%
    10:00 +3°C° 0 mm 5 m/s 772 mmHg 42%
    11:00 +5°C° 0 mm 5 m/s 771 mmHg 39%
    12:00 +6°C° 0 mm 5 m/s 771 mmHg 37%
    13:00 +7°C° 0 mm 5 m/s 771 mmHg 37%
    14:00 +7°C° 0 mm 5 m/s 771 mmHg 36%
    15:00 +7°C° 0 mm 4 m/s 770 mmHg 36%
    16:00 +6°C° 0 mm 4 m/s 770 mmHg 40%
    17:00 +5°C° 0 mm 3 m/s 770 mmHg 45%
    18:00 +4°C° 0 mm 3 m/s 770 mmHg 50%
    19:00 +3°C° 0 mm 3 m/s 770 mmHg 53%
    20:00 +3°C° 0 mm 3 m/s 770 mmHg 56%
    21:00 +2°C° 0 mm 3 m/s 770 mmHg 59%
    22:00 +2°C° 0 mm 2 m/s 770 mmHg 62%
    23:00 +2°C° 0 mm 2 m/s 770 mmHg 64%

    1 Avril, Mercredi

    Heure Température Précipitation Vent Pression Humidité
    00:00 +1°C° 0 mm 2 m/s 770 mmHg 67%
    01:00 +2°C° 0 mm 1 m/s 769 mmHg 68%
    02:00 +2°C° 0 mm 1 m/s 769 mmHg 70%
    03:00 +1°C° 0 mm 1 m/s 768 mmHg 71%
    04:00 +1°C° 0 mm 0 m/s 768 mmHg 72%
    05:00 +1°C° 0 mm 0 m/s 768 mmHg 72%
    06:00 +1°C° 0 mm 0 m/s 768 mmHg 72%
    07:00 +4°C° 0 mm 1 m/s 768 mmHg 72%
    08:00 +5°C° 0 mm 1 m/s 768 mmHg 72%
    09:00 +7°C° 0 mm 1 m/s 767 mmHg 71%
    10:00 +7°C° 0 mm 2 m/s 767 mmHg 65%
    11:00 +8°C° 0 mm 2 m/s 767 mmHg 59%
    12:00 +9°C° 0 mm 2 m/s 766 mmHg 53%
    13:00 +9°C° 0 mm 3 m/s 766 mmHg 55%
    14:00 +9°C° 0 mm 3 m/s 765 mmHg 56%
    15:00 +9°C° 0 mm 3 m/s 765 mmHg 58%
    16:00 +8°C° 0 mm 3 m/s 765 mmHg 63%
    17:00 +7°C° 0 mm 3 m/s 764 mmHg 67%
    18:00 +7°C° 0 mm 3 m/s 764 mmHg 71%
    19:00 +6°C° 0 mm 2 m/s 764 mmHg 74%
    20:00 +5°C° 0 mm 2 m/s 765 mmHg 78%
    21:00 +4°C° 0 mm 2 m/s 765 mmHg 81%
    22:00 +4°C° 0 mm 2 m/s 765 mmHg 83%
    23:00 +4°C° 0 mm 2 m/s 764 mmHg 84%

    2 Avril, Jeudi

    Heure Température Précipitation Vent Pression Humidité
    00:00 +4°C° 0 mm 1 m/s 764 mmHg 86%
    01:00 +4°C° 0 mm 1 m/s 764 mmHg 86%
    02:00 +4°C° 0 mm 1 m/s 764 mmHg 87%
    03:00 +4°C° 0 mm 1 m/s 763 mmHg 87%
    04:00 +4°C° 0 mm 1 m/s 763 mmHg 86%
    05:00 +4°C° 0 mm 1 m/s 763 mmHg 85%
    06:00 +5°C° 0 mm 1 m/s 763 mmHg 85%
    07:00 +6°C° 0 mm 1 m/s 763 mmHg 78%
    08:00 +8°C° 0 mm 1 m/s 763 mmHg 71%
    09:00 +9°C° 0 mm 1 m/s 763 mmHg 65%
    10:00 +10°C° 0.1 mm 1 m/s 763 mmHg 61%
    11:00 +11°C° 0.1 mm 1 m/s 763 mmHg 57%
    12:00 +11°C° 0.1 mm 1 m/s 763 mmHg 53%
    13:00 +10°C° 0 mm 2 m/s 763 mmHg 53%
    14:00 +10°C° 0 mm 2 m/s 762 mmHg 53%
    15:00 +10°C° 0 mm 2 m/s 762 mmHg 53%
    16:00 +10°C° 0 mm 2 m/s 762 mmHg 58%
    17:00 +9°C° 0 mm 2 m/s 762 mmHg 62%
    18:00 +8°C° 0 mm 2 m/s 762 mmHg 67%
    19:00 +7°C° 0 mm 2 m/s 762 mmHg 71%
    20:00 +6°C° 0 mm 2 m/s 762 mmHg 75%
    21:00 +5°C° 0 mm 2 m/s 762 mmHg 79%
    22:00 +4°C° 0 mm 2 m/s 762 mmHg 80%
    23:00 +4°C° 0 mm 2 m/s 762 mmHg 80%
    Voir plus